Regional Weather Roundup
Issued by NWS Burlington, VT

Current Version | Previous Version | Graphics & Text | Print | Product List | Glossary Off
Versions: 1 2 3 4 5 6 7 8 9 10 11 12 13 14 15 16 17 18 19 20 21 22 23 24 25 26 27 28 29 30 31 32 33 34 35 36 37 38 39 40 41 42 43 44 45 46 47 48 49 50

000
ASUS41 KBTV 261130
RWRBTV
VERMONT REGIONAL WEATHER ROUNDUP
NATIONAL WEATHER SERVICE BURLINGTON VT
700 AM EDT THU APR 26 2018

NOTE: "FAIR" INDICATES FEW OR NO CLOUDS BELOW 12,000 FEET WITH NO
SIGNIFICANT WEATHER AND/OR OBSTRUCTIONS TO VISIBILITY.

* THESE REPORTS ARE NOT UNDER NWS QUALITY CONTROL AND/OR DO NOT
  REPORT WEATHER SUCH AS PRECIPITATION AND FOG.

VTZ001>019-261200-
_____VERMONT_____


CITY           SKY/WX    TMP DP  RH WIND       PRES   REMARKS
BURLINGTON     RAIN      53  51  93 NW5       29.57S FOG
MONTPELIER     RAIN      47  47 100 CALM      29.61S FOG
MORRISVILLE    CLOUDY    46  46 100 CALM      29.58S FOG
ST. JOHNSBURY*   N/A     49  49 100 MISG      29.56S
LYNDONVILLE*   RAIN      47  46  99 CALM      29.58S VSB 1/2
MIDDLEBURY*    RAIN      51  51  99 CALM      29.58R
RUTLAND*       LGT RAIN  50  49  96 CALM      29.59R
SPRINGFIELD    LGT RAIN  50  50 100 CALM      29.59R FOG
HIGHGATE*      LGT RAIN  50  50 100 CALM      29.58R
NEWPORT*       DRIZZLE   48  48 100 CALM      29.57F
BENNINGTON     CLOUDY    50  46  86 SW9       29.63R
ISLAND POND*     N/A     43 N/A N/A CALM        N/A
GALLUP MILLS*    N/A     39 N/A N/A MISG        N/A
UNION VILLAGE*   N/A     48 N/A N/A MISG        N/A
MT. MANSFIELD*   N/A     45 N/A N/A W20         N/A

_____LAKE CHAMPLAIN_____


CITY           SKY/WX    TMP DP  RH WIND       PRES   REMARKS
BURTON ISLAND*   N/A     48  48 100 SW3         N/A
COLCHESTER RF*   N/A     48  48 100 SW3         N/A
DIAMOND ISL*     N/A     48  50 100 S2          N/A

$$

NYZ007-026>031-035-052-083-087-261200-
_____NORTHERN NEW YORK_____


CITY           SKY/WX    TMP DP  RH WIND       PRES   REMARKS
PLATTSBURGH    LGT RAIN  49  48  97 MISG      29.57R FOG
SARANAC LAKE   CLOUDY    44  44 100 SW7       29.58R FOG
MASSENA        CLOUDY    45  44  97 SW15      29.61R
OGDENSBURG*    CLOUDY    43  42  98 S12       29.63R FOG
POTSDAM*       CLOUDY    43  43 100 SW13      29.61R
STARK FALLS*     N/A     41 N/A N/A S7          N/A
WATERTOWN      LGT RAIN  39  39 100 SW12      29.67R VSB 1   WCI  32
FT DRUM        CLOUDY    39  37  91 SW22G30   29.63R WCI  28
ALBANY         CLOUDY    52  45  77 W13       29.65R
GLENS FALLS    LGT RAIN  50  48  93 SW10      29.60R

$$
NHZ002-005-011-261200-
_____NEW HAMPSHIRE_____


CITY           SKY/WX    TMP DP  RH WIND       PRES   REMARKS
LEBANON        CLOUDY    51  48  89 CALM      29.57S FOG
KEENE          LGT RAIN  51  50  96 CALM      29.59R
MT WASHINGTON  LGT RAIN  39  39 100 S16         N/A  VSB 3/16WCI  30
PLYMOUTH       DRZL/FOG  49  48  97 MISG      29.58S VSB 3/4
WHITEFIELD     RAIN      48  47  96 CALM      29.57S FOG

$$

_____REGIONAL QUEBEC LOCATIONS_____


CITY           SKY/WX    TMP DP  RH WIND       PRES   REMARKS
MONTREAL       LGT RAIN  50  50 100 NE7       29.56S FOG
QUEBEC CITY    LGT RAIN  46  45  93 E7        29.60F VSB 1/4
SHERBROOKE     CLOUDY    46  46 100 VRB2      29.57R

_____REGIONAL ONTARIO LOCATIONS_____


CITY           SKY/WX    TMP DP  RH WIND       PRES   REMARKS
OTTAWA         LGT RAIN  46  46 100 NW9       29.59R FOG

______KEY______
VSB  - VISIBILITY IN MILES
WCI  - WIND CHILL INDEX
HX   - HEAT INDEX
$$
NNNN



USA.gov is the U.S. government's official web portal to all federal, state and local government web resources and services.